Olympia, WA
on Saturday, January 19, 2013

Saturday
Previous Day Next Day
Daily Summary
 ActualAverageRecord
Temperature
Mean Temperature °F 40°F  
Max Temperature 37°F 46°F 64°F (2005)
Min Temperature 32°F 34°F 15°F (1984)
Degree Days
Heating Degree Days 30 25  
Month to date heating degree days 564 485  
Since 1 July heating degree days 2727 2755  
Cooling Degree Days 0 0  
Month to date cooling degree days 0 0  
Year to date cooling degree days 0 0  
Moisture
Dew Point 34°F   
Average Humidity 93    
Maximum Humidity 100    
Minimum Humidity 85    
Precipitation
Precipitation 0.00 in 0.27 in 2.47 in (1967)
Month to date precipitation 2.79 4.97  
Year to date precipitation 2.79 4.97  
Wind
Wind Speed 5 mph   
Max Wind Speed 10 mph   
Max Gust Speed 12 mph   
Visibility 2 miles   
Events Fog   

Key: T is trace of precipitation, MM is missing value
Source: NWS Daily Summary
Time(PST)TemperatureDew PointHumidity Pressure Visibility Wind DirectionWind SpeedGust SpeedPrecipitationEvents Conditions
12:28 AM 35.1°F 34.0°F 96% 30.33 in 1.8 miles NE 4.6 mph - N/A   Overcast
12:35 AM 35.1°F 34.0°F 96% 30.33 in 2.5 miles ENE 4.6 mph - N/A   Overcast
12:54 AM 35.1°F 34.0°F 96% 30.34 in 1.8 miles East 4.6 mph - N/A   Overcast
1:15 AM 35.1°F 35.1°F 100% 30.33 in 2.0 miles NE 5.8 mph - N/A   Overcast
1:54 AM 35.1°F 35.1°F 100% 30.35 in 1.8 miles ENE 6.9 mph - N/A   Overcast
2:07 AM 35.1°F 35.1°F 100% 30.34 in 2.0 miles ENE 4.6 mph - N/A   Overcast
2:14 AM 35.1°F 35.1°F 100% 30.34 in 1.2 miles ESE 5.8 mph - N/A   Overcast
2:22 AM 34.0°F 34.0°F 100% 30.34 in 0.5 miles East 4.6 mph - N/A Fog Fog
2:54 AM 34.0°F 34.0°F 100% 30.35 in 0.8 miles East 3.5 mph - N/A   Mist
3:54 AM 33.1°F 33.1°F 100% 30.35 in 0.5 miles ESE 4.6 mph - N/A Fog Fog
4:25 AM 33.1°F 33.1°F 100% 30.34 in 0.2 miles ESE 3.5 mph - N/A Fog Fog
4:54 AM 34.0°F 33.1°F 96% 30.35 in 0.5 miles NNE 4.6 mph - N/A Fog Fog
5:15 AM 34.0°F 34.0°F 100% 30.34 in 1.2 miles NNE 6.9 mph - N/A   Overcast
5:26 AM 34.0°F 34.0°F 100% 30.34 in 0.5 miles East 4.6 mph - N/A Fog Fog
5:54 AM 34.0°F 33.1°F 96% 30.35 in 0.8 miles NE 5.8 mph - N/A   Mist
6:10 AM 34.0°F 33.1°F 96% 30.35 in 1.2 miles NE 4.6 mph - N/A   Overcast
6:28 AM 33.1°F 33.1°F 100% 30.35 in 1.5 miles ENE 5.8 mph - N/A   Overcast
6:54 AM 33.1°F 33.1°F 100% 30.36 in 1.5 miles ENE 4.6 mph - N/A   Overcast
7:02 AM 33.1°F 33.1°F 100% 30.35 in 0.8 miles ENE 4.6 mph - N/A   Overcast
7:54 AM 33.1°F 33.1°F 100% 30.36 in 0.2 miles ENE 5.8 mph - N/A Fog Fog
8:54 AM 32.0°F 32.0°F 100% 30.38 in 0.8 miles ENE 8.1 mph - N/A   Overcast
9:54 AM 33.1°F 32.0°F 96% 30.39 in 0.2 miles ENE 3.5 mph - N/A Fog Fog
10:54 AM 33.1°F 33.1°F 100% 30.39 in 0.2 miles East 3.5 mph - N/A Fog Fog
11:54 AM 34.0°F 34.0°F 100% 30.37 in 1.0 miles ENE 5.8 mph - N/A   Overcast
12:54 PM 35.1°F 34.0°F 96% 30.36 in 2.0 miles ENE 4.6 mph - N/A   Overcast
12:56 PM 35.1°F 34.0°F 96% 30.35 in 2.0 miles NE 5.8 mph - N/A   Overcast
1:54 PM 35.1°F 34.0°F 96% 30.34 in 3.0 miles NE 4.6 mph - N/A   Overcast
2:09 PM 36.0°F 34.0°F 93% 30.33 in 4.0 miles NNE 6.9 mph - N/A   Overcast
2:54 PM 37.0°F 34.0°F 89% 30.33 in 4.0 miles ENE 6.9 mph - N/A   Overcast
3:54 PM 37.0°F 34.0°F 89% 30.34 in 4.0 miles NE 5.8 mph - N/A   Overcast
4:54 PM 36.0°F 34.0°F 93% 30.35 in 4.0 miles ENE 9.2 mph - N/A   Overcast
5:54 PM 36.0°F 34.0°F 93% 30.35 in 4.0 miles NNE 8.1 mph - N/A   Overcast
6:54 PM 36.0°F 34.0°F 93% 30.36 in 5.0 miles NE 5.8 mph - N/A   Overcast
7:54 PM 36.0°F 34.0°F 93% 30.37 in 5.0 miles ENE 6.9 mph - N/A   Overcast
8:54 PM 36.0°F 34.0°F 93% 30.38 in 5.0 miles ENE 4.6 mph - N/A   Overcast
9:54 PM 36.0°F 34.0°F 93% 30.38 in 6.0 miles ENE 3.5 mph - N/A   Overcast
10:54 PM 36.0°F 34.0°F 93% 30.38 in 5.0 miles ENE 3.5 mph - N/A   Overcast
11:29 PM 35.1°F 34.0°F 96% 30.37 in 4.0 miles ENE 6.9 mph - N/A   Overcast
11:54 PM 35.1°F 33.1°F 92% 30.38 in 3.0 miles ENE 4.6 mph - N/A   Overcast
Moon Phase
Jan. 19 Jan. 26 Feb. 03 Feb. 10 Feb. 17
Sunrise:07:49 AM (PST) Moon Rise:11:29 AM (PST)1/19
Sunset:04:55 PM (PST) Moon Set:01:23 AM (PST)1/19

Copyright © 2014 The Weather Underground, Inc.